Back to catalog

UME 1

ISS 1

AliveScienceLEO
NORAD 8709·PAYLOAD·🇯🇵 Japan

Launched Feb 29, 1976 from Tanegashima Space Center

Loading…

Next Passes (next 24 hours)

TLE

FreshSource: Space-Track

Epoch: Sep 14, 2026, 14:17 UTC

1 08709U 76019A   26257.59573295  .00000003  00000-0  61208-4 0  9998
2 08709  69.6745 309.8184 0011174 200.7554 311.8406 13.71751576529353

Track UME 1 in real time with AllMySat

Download on the App Store